Simultaneous Nadir Overpasses (SNOs) Predictions

Prediction of SNOs over PacNW region [( 10.00, 139.50) to ( 22.70, 165.60)] between AQUA and NPP Satellites:

Table of predicted SNOs over PacNW region for the next 30.0 days since TLE Epoch: 10/5/2012
Index Date (AQUA) Time (AQUA) AQUA Lat,Lon Date (NPP) Time (NPP) NPP Lat,Lon Distance(km) Time Diff (sec)
1 10/09/2012 15:59:06 22.64, 147.45 10/09/2012 15:59:26 23.26, 144.66 294.13 20
2 10/17/2012 15:10:44 18.89, 158.92 10/17/2012 15:09:41 19.38, 156.40 269.59 63
3 10/25/2012 15:59:06 22.63, 147.44 10/25/2012 15:59:15 23.23, 144.69 289.39 9




NCC Satellite Simultaneous Nadir Overpasses (SNOs) Prediction Service
